Zurück zum Katalog

SL-14 R/B

AktivPO
NORAD 14148·ROCKET BODY·🇷🇺 Russia

Gestartet Jun 23, 1983 von Plesetsk Cosmodrome

Loading…

Nächste Überflüge (nächste 24 Stunden)

TLE

AktuellSource: Space-Track

Epoche: Sep 14, 2026, 04:38 UTC

1 14148U 83061B   26257.19318582  .00000287  00000-0  30108-4 0  9998
2 14148  82.5215 344.0558 0020516 357.8211   2.2913 14.85800000314385

Verfolge SL-14 R/B in Echtzeit mit AllMySat

Download on the App Store